Regional Weather Roundup
Issued by NWS

Home | Current Version | Previous Version | Graphics & Text | Print | Product List | Glossary On
Versions: 1 2 3 4 5 6 7 8 9 10 11 12 13 14 15 16 17 18 19 20 21 22 23 24 25 26 27 28
000
ASUS45 KTFX 211610
RWRMT
MONTANA REGIONAL WEATHER ROUNDUP
NATIONAL WEATHER SERVICE GREAT FALLS MT
900 AM MST SAT JAN 21 2017

NOTE: "FAIR" INDICATES FEW OR NO CLOUDS BELOW 12000 FEET WITH NO
SIGNIFICANT WEATHER AND/OR OBSTRUCTIONS TO VISIBILITY.

MTZ001>007-043-211700-
WEST OF THE DIVIDE

CITY           SKY/WX    TMP DP  RH WIND       PRES   REMARKS
KALISPELL      MOCLDY    15  11  83 CALM      29.42R
MISSOULA       CLOUDY    17  15  92 W3        29.45R
BUTTE          CLOUDY     9   4  80 S3        29.36R
MULLAN PASS    LGT SNOW  22  20  92 S6        29.31R FOG     WCI  14
ANACONDA         N/A     16  10  79 CALM      29.39R
DEER LODGE       N/A     12   9  85 CALM      29.43R
EUREKA           N/A     21  19  93 CALM      29.47R
HAMILTON         N/A     19  18  93 CALM      29.42R VSB 1
PLAINS           N/A     18  13  80 CALM      29.48
RONAN            N/A     20  17  88 CALM      29.49R VSB 0
THOMPSON FALLS   N/A     25  22  88 E8        29.50R WCI  16
$$

MTZ008-052>055-211700-
SOUTHWEST MONTANA

CITY           SKY/WX    TMP DP  RH WIND       PRES   REMARKS
BOZEMAN        CLOUDY     8   5  87 SW5       29.41R
DILLON         CLOUDY    22  12  65 SW12      29.37R WCI  10
W YELLOWSTONE  CLOUDY    16  14  93 CALM      29.37R
ENNIS          CLOUDY    23  16  74 SE5       29.40R
$$

MTZ009-010-012-014-046-048-049-054-211700-
EAST SLOPES AND CENTRAL MONTANA

CITY           SKY/WX    TMP DP  RH WIND       PRES   REMARKS
CUT BANK       CLEAR     18  14  84 NW6       29.38R WCI  10
GREAT FALLS    CLOUDY    20  15  81 SW6       29.38R WCI  12
MALMSTROM AFB  CLOUDY    19  17  95 SW9       29.40R WCI   7
HELENA         CLOUDY     6   3  87 CALM      29.42R
AUGUSTA          N/A     20  14  76 SW6       29.35R WCI  13
BOWMANS CRNR     N/A     17  11  78 SW7       29.35R WCI   8
CHOTEAU          N/A     19  14  79 W6        29.39R WCI  11
CONRAD           N/A     10   7  88 CALM      29.45R
POWER            N/A     13  13 100 CALM      29.37R
RAYNESFORD       N/A     20  14  77 CALM      29.37R
ULM              N/A     18  15  90 MISG      29.39R
$$

MTZ011-013-016-021-045-047-050-051-211700-
NORTH CENTRAL MONTANA

CITY           SKY/WX    TMP DP  RH WIND       PRES   REMARKS
HAVRE          FOG       12  11  95 W6        29.41R VSB 1/4 WCI   3
LEWISTOWN      CLEAR     19  14  81 SE5       29.36R
CHINOOK          N/A     16  12  86 CALM      29.42R
DENTON           N/A     19  15  82 S6        29.34R WCI  11
FORT BENTON      N/A     21  16  79 MISG      29.41S
GEYSER           N/A     24  18  78 CALM      29.35R
GRASS RANGE      N/A     24  20  84 W3        29.33R
JUDITH GAP       N/A     20  12  73 CALM      29.35R
ROY              N/A     27  21  78 MISG      29.34R
STANFORD         N/A     27  18  67 CALM      29.35R
WINIFRED         N/A     26  21  80 W7        29.35R WCI  19
$$

MTZ017>020-022>027-061-062-211700-
NORTHEAST MONTANA

CITY           SKY/WX    TMP DP  RH WIND       PRES   REMARKS
GLASGOW        FOG       16  13  88 W12       29.37R VSB<1/4 WCI   3
JORDAN           N/A     19  16  88 CALM      29.37S
SIDNEY         CLOUDY    29  24  82 CALM      29.35R
WOLF POINT     CLOUDY    19  16  88 W5        29.37R
PLENTYWOOD       N/A     30  25  80 W6        29.32R WCI  24
POPLAR           N/A     19  18  93 W10       29.36R WCI   8
SCOBEY           N/A     23  14  68 CALM      29.36R
$$

MTZ028>42-056>058-211700-
SOUTHCENTRAL AND SOUTHEAST MONTANA

CITY           SKY/WX    TMP DP  RH WIND       PRES   REMARKS
BAKER          CLOUDY    21  19  92 NW3       29.37R FOG
BILLINGS       CLOUDY    19  16  88 SW16      29.38R WCI   4
LIVINGSTON     CLOUDY    14   6  70 NW10      29.37R WCI   1
MILES CITY     FOG       17  13  84 SW7       29.40R VSB<1/4 WCI   8
BIG TIMBER     PTCLDY    19  14  79 W6        29.40R WCI  11
EKALAKA          N/A     27  24  88 W2        29.40
FORSYTH          N/A     12  10  92 CALM      29.40R
HARLOWTON        N/A     16  10  78 NW14      29.37R WCI   2
LAUREL           N/A     16  10  77 SW6       29.42R WCI   8
$$

REGIONAL REPORTS...DAKOTAS

CITY           SKY/WX    TMP DP  RH WIND       PRES   REMARKS
WILLISTON      CLOUDY    28  24  85 CALM      29.33S
MINOT          CLOUDY    29  26  89 CALM      29.33R FOG
DICKINSON      CLOUDY    25  22  88 W8        29.30R WCI  16
BEACH            N/A     27  25  93 W13       29.38R WCI  16
CROSBY         CLOUDY    25  25 100 W8        29.34R WCI  16
TIOGA          PTSUNNY   18  18 100 W3        29.33R
WATFORD CITY     N/A     28  25  86 SW7       29.33S WCI  21
BISMARCK       CLOUDY    28  25  88 CALM      29.35F FOG
GRAND FORKS    CLOUDY    36  32  85 SE9       29.42S WCI  29
FARGO          CLOUDY    38  34  85 E8        29.40S
BUFFALO SD       N/A     26  22  84 NW13      29.29R WCI  15
RAPID CITY     SUNNY     34  28  79 W6        29.37R WCI  29
$$

REGIONAL REPORTS...WYOMING/IDAHO/WASHINGTON

CITY           SKY/WX    TMP DP  RH WIND       PRES   REMARKS
GILLETTE       SUNNY     23  21  92 CALM      29.37R
SHERIDAN       CLOUDY    18  13  80 CALM      29.37R
BUFFALO WY     CLOUDY    28  17  63 W7        29.36R WCI  21
CODY           CLOUDY    20  10  65 CALM      29.37R
YELLOWSTONE LA   N/A     10   9  95 CALM      29.38R
IDAHO FALLS    CLOUDY    26  23  88 NW3       29.40R
SALMON         CLOUDY    16  16 100 CALM      29.45R
BOISE          CLOUDY    33  32  96 CALM      29.47R FOG
SPOKANE        CLOUDY    33  28  81 S3        29.38R
$$

REGIONAL REPORTS...ALBERTA

CITY           SKY/WX    TMP DP  RH WIND       PRES   REMARKS
EDMONTON         N/A     12   9  85 CALM      29.49R VSB 1/8
CALGARY        PTCLDY    14   9  79 CALM      29.41R
LETHBRIDGE     PTCLDY    18  14  86 SW8       29.41R WCI   7
MEDICINE HAT   PTCLDY    18  16  93 SW6       29.41R WCI   9
WATERTON GATE    N/A     18  12  79 SW2         N/A
CARDSTON         N/A     18  12  79 SE2         N/A
MILK RIVER       N/A     18  14  86 NW9         N/A  WCI   6
ONEFOUR          N/A     14  12  92 NW7         N/A  WCI   4
$$

REGIONAL REPORTS...SASKATCHEWAN

CITY           SKY/WX    TMP DP  RH WIND       PRES   REMARKS
SWIFT CURRENT  FRZ RAIN  25  25 100 W9        29.33R VSB 1/8 WCI  15
REGINA         FOG       19  19 100 SE3       29.32R VSB 1/4
SASKATOON      CLOUDY    27  27 100 NE6       29.39R FOG     WCI  20
ROCKGLEN         N/A     28  25  86 NW10        N/A  WCI  19
ASSINIBOIA       N/A     12  10  92 NW2         N/A
$$




USA.gov is the U.S. government's official web portal to all federal, state and local government web resources and services.